Olive Branch, MS

7:33 PM CDT on June 25, 2017 (GMT -0500)
Olive Branch

Weather History for KOLV - January, 2014

Change the Weather History Date:

Sunday, January 5, 2014

  Actual Average (KMEM) Record (KMEM)
Temperature  
Mean Temperature 34 °F -  
Max Temperature 48 °F 45 °F 71 °F (2005)
Min Temperature 17 °F 30 °F 0 °F (1884)
Degree Days  
Heating Degree Days 32    
Moisture  
Dew Point 34 °F    
Average Humidity 92    
Maximum Humidity 100    
Minimum Humidity 79    
Precipitation  
Precipitation 0.00 in - - ()
Sea Level Pressure  
Sea Level Pressure 29.99 in    
Wind  
Wind Speed 11 mph (SSE)    
Max Wind Speed 20 mph    
Max Gust Speed 30 mph    
Visibility 9 miles    
Events Rain    
Averages and records for this station are not official NWS values.
T = Trace of Precipitation, MM = Missing Value Source: NWS Daily Summary

Daily Weather History Graph

Daily Weather History Graph

Search for Another Location

Airport or City:

Trip Planner

Search our weather history database for the weather conditions in past years. The results will help you decide how hot, cold, wet, or windy it might be!

Date:

Astronomy

Jan. 05, 2014 Rise Set
Actual Time 7:07 AM CST 5:01 PM CST
Civil Twilight 6:39 AM CST 5:29 PM CST
Nautical Twilight 6:08 AM CST 6:01 PM CST
Astronomical Twilight 5:37 AM CST 6:31 PM CST
Moon 10:01 AM CST (1/5) 10:16 PM CST (1/5)
Length of Visible Light 10h 50m
Length of Day
9h 54m
Waxing Crescent, 25% of the Moon is Illuminated
Jan 5
Waxing Crescent
Jan 7
First Quarter
Jan 15
Full
Jan 23
Last Quarter
Jan 30
New

Hourly Weather History & Observations

Time (CST) Temp. Windchill Dew Point Humidity Pressure Visibility Wind Dir Wind Speed Gust Speed Precip Events Conditions
12:15 AM 44.6 °F 39.7 °F 39.2 °F 81% 29.99 in 8.0 mi SSE 9.2 mph 16.1 mph 0.00 in   Overcast
12:35 AM 46.4 °F 41.1 °F 41.0 °F 81% 29.98 in 10.0 mi SSE 11.5 mph - 0.00 in   Overcast
12:55 AM 46.4 °F 40.7 °F 41.0 °F 81% 29.97 in 10.0 mi SSE 12.7 mph 19.6 mph 0.00 in   Overcast
1:15 AM 44.6 °F 38.4 °F 41.0 °F 87% 29.97 in 10.0 mi SSE 12.7 mph 18.4 mph 0.00 in   Overcast
1:35 AM 44.6 °F 38.4 °F 41.0 °F 87% 29.97 in 10.0 mi SSE 12.7 mph 18.4 mph 0.00 in   Overcast
1:55 AM 44.6 °F 38.1 °F 41.0 °F 87% 29.96 in 10.0 mi SSE 13.8 mph 17.3 mph 0.00 in   Overcast
2:15 AM 44.6 °F 38.8 °F 42.8 °F 93% 29.94 in 9.0 mi SSE 11.5 mph 18.4 mph 0.00 in   Overcast
2:35 AM 44.6 °F 37.8 °F 42.8 °F 93% 29.94 in 10.0 mi SSE 15.0 mph 24.2 mph 0.00 in   Overcast
2:55 AM 44.6 °F 38.8 °F 42.8 °F 93% 29.93 in 10.0 mi South 11.5 mph 18.4 mph 0.00 in   Overcast
3:15 AM 44.6 °F 39.2 °F 42.8 °F 93% 29.92 in 10.0 mi SSE 10.4 mph 17.3 mph 0.00 in   Overcast
3:35 AM 44.6 °F 38.4 °F 42.8 °F 93% 29.92 in 10.0 mi SSE 12.7 mph - 0.00 in   Overcast
3:55 AM 44.6 °F 38.4 °F 42.8 °F 93% 29.91 in 10.0 mi SSE 12.7 mph - 0.00 in   Overcast
4:15 AM 44.6 °F 38.1 °F 42.8 °F 93% 29.89 in 10.0 mi SSE 13.8 mph 20.7 mph 0.00 in   Overcast
4:35 AM 44.6 °F 37.8 °F 42.8 °F 93% 29.88 in 10.0 mi SSE 15.0 mph 21.9 mph 0.00 in   Overcast
4:55 AM 44.6 °F 38.4 °F 42.8 °F 93% 29.87 in 9.0 mi SSE 12.7 mph 23.0 mph 0.00 in   Overcast
5:15 AM 44.6 °F 38.1 °F 42.8 °F 93% 29.87 in 9.0 mi SSE 13.8 mph 19.6 mph 0.00 in   Overcast
5:35 AM 44.6 °F 37.8 °F 42.8 °F 93% 29.86 in 9.0 mi SSE 15.0 mph - 0.00 in   Overcast
6:50 AM 44.6 °F 38.8 °F 44.6 °F 100% 29.84 in 10.0 mi SSE 11.5 mph 17.3 mph N/A   Overcast
7:50 AM 44.6 °F 38.1 °F 44.6 °F 100% 29.82 in 10.0 mi SSE 13.8 mph 20.7 mph N/A   Overcast
8:50 AM 46.4 °F 40.4 °F 46.4 °F 100% 29.80 in 7.0 mi South 13.8 mph 20.7 mph N/A Rain Rain
9:50 AM 44.6 °F 38.8 °F 44.6 °F 100% 29.78 in 5.0 mi South 11.5 mph 17.3 mph N/A Rain Rain
10:50 AM 46.4 °F 39.8 °F 46.4 °F 100% 29.74 in 7.0 mi South 16.1 mph 23.0 mph N/A Rain Light Rain
11:50 AM 48.2 °F - 48.2 °F 100% 29.70 in 5.0 mi South 16.1 mph 23.0 mph N/A Rain Light Rain
12:30 PM 48.2 °F - 48.2 °F 100% 29.68 in 10.5 mi South 16.1 mph 23.0 mph N/A Rain Rain
12:50 PM 48.2 °F - 48.2 °F 100% 29.68 in 2.0 mi SSW 12.7 mph 23.0 mph N/A Rain Rain
1:10 PM 48.2 °F - 48.2 °F 100% 29.72 in 2.0 mi NW 17.3 mph 29.9 mph N/A Rain Rain
3:50 PM - - - N/A% 29.90 in 8.0 mi WNW 11.5 mph 23.0 mph N/A   Overcast
4:50 PM 26.6 °F 13.1 °F 26.6 °F 100% 29.97 in 8.0 mi NW 19.6 mph 28.8 mph N/A   Overcast
5:50 PM 26.6 °F 13.8 °F 24.8 °F 93% 30.04 in 8.0 mi NNW 17.3 mph 23.0 mph N/A   Overcast
7:50 PM 23.0 °F 10.1 °F 21.2 °F 93% 30.15 in 10.0 mi NNW 15.0 mph - N/A   Overcast
7:55 PM 23.0 °F - 21.2 °F 93% 30.15 in 10.0 mi Calm Calm - 0.00 in   Overcast
8:15 PM 23.0 °F - 21.2 °F 93% 30.17 in 7.0 mi Calm Calm - 0.00 in   Overcast
8:35 PM 23.0 °F - 21.2 °F 93% 30.18 in 10.0 mi Calm Calm - 0.00 in   Overcast
8:55 PM 23.0 °F - 21.2 °F 93% 30.19 in 9.0 mi Calm Calm - 0.00 in   Overcast
9:15 PM 23.0 °F - 19.4 °F 86% 30.20 in 10.0 mi Calm Calm - 0.00 in   Overcast
9:35 PM 23.0 °F - 19.4 °F 86% 30.21 in 10.0 mi Calm Calm - 0.00 in   Overcast
9:55 PM 21.2 °F - 19.4 °F 93% 30.23 in 10.0 mi Calm Calm - 0.00 in   Overcast
10:15 PM 21.2 °F - 17.6 °F 86% 30.24 in 8.0 mi Calm Calm - 0.00 in   Overcast
10:35 PM 21.2 °F - 15.8 °F 80% 30.26 in 7.0 mi Calm Calm - 0.00 in   Overcast
10:55 PM 19.4 °F - 14.0 °F 80% 30.28 in 10.0 mi Calm Calm - 0.00 in   Overcast
11:15 PM 19.4 °F - 17.6 °F 93% 30.29 in 5.0 mi Calm Calm - 0.00 in   Overcast
11:35 PM 19.4 °F - 14.0 °F 80% 30.30 in 9.0 mi Calm Calm - 0.00 in   Overcast
11:55 PM 17.6 °F - 12.2 °F 79% 30.31 in 9.0 mi Calm Calm - 0.00 in   Mostly Cloudy